AFL241 UMKK-ULLI

Flight info

Callsign AFL241
Flight time N/A
Altitude 39000
Route PELUG3N PELUG DCT KEDUX DCT PIVAX DCT PINIX DCT PIRUX DCT PISIM DCT PIDIN DCT ARANS/K0889F390 DCT PISIS DCT AKARU AKARU1V
Aircraft A359/H-SDE2E3GHIJ3J4J5LM1ORWXY/LB1D1

Departure

Time 2026-05-01 14:45
Airport Khrabrovo Airport (UMKK)

Arrival

Time N/A
Airport Pulkovo Airport (ULLI)
Time Latitude Longitude Altitude Speed Heading
2026-05-01 14:36 54.88348 20.58218 30 ft 0 kts 56°
2026-05-01 14:38 54.88348 20.58219 33 ft 1 kts 57°
2026-05-01 14:38 54.88361 20.58257 33 ft 7 kts 58°
2026-05-01 14:38 54.88395 20.58352 33 ft 11 kts 59°
2026-05-01 14:39 54.88435 20.58476 33 ft 13 kts 60°
2026-05-01 14:39 54.88478 20.58628 33 ft 15 kts 67°
2026-05-01 14:39 54.88514 20.58778 33 ft 8 kts 61°
2026-05-01 14:39 54.88560 20.58808 33 ft 7 kts 345°
2026-05-01 14:40 54.88616 20.58771 33 ft 10 kts 338°
2026-05-01 14:40 54.88684 20.58718 32 ft 12 kts 334°
2026-05-01 14:40 54.88770 20.58650 30 ft 16 kts 335°
2026-05-01 14:40 54.88865 20.58700 28 ft 17 kts 61°
2026-05-01 14:41 54.88917 20.58899 28 ft 20 kts 65°
2026-05-01 14:41 54.88981 20.59142 31 ft 24 kts 65°
2026-05-01 14:41 54.89057 20.59441 31 ft 30 kts 66°
2026-05-01 14:41 54.89154 20.59815 28 ft 36 kts 65°
2026-05-01 14:42 54.89258 20.60217 28 ft 36 kts 65°
2026-05-01 14:42 54.89363 20.60622 28 ft 37 kts 65°
2026-05-01 14:42 54.89470 20.61034 26 ft 38 kts 66°
2026-05-01 14:42 54.89578 20.61453 27 ft 38 kts 65°
2026-05-01 14:43 54.89676 20.61835 30 ft 25 kts 66°
2026-05-01 14:43 54.89727 20.62037 30 ft 19 kts 66°
2026-05-01 14:43 54.89736 20.62171 30 ft 7 kts 94°
2026-05-01 14:43 54.89748 20.62192 30 ft 1 kts 21°
2026-05-01 14:44 54.89754 20.62187 30 ft 1 kts 345°
2026-05-01 14:44 54.89752 20.62142 30 ft 0 kts 246°
2026-05-01 14:44 54.89747 20.62120 30 ft 11 kts 245°
2026-05-01 14:45 54.89644 20.61717 29 ft 72 kts 246°
2026-05-01 14:45 54.88899 20.58865 337 ft 160 kts 246°
2026-05-01 14:45 54.88421 20.57159 1131 ft 163 kts 246°
2026-05-01 14:46 54.88005 20.55251 1546 ft 180 kts 262°
2026-05-01 14:46 54.89512 20.51437 2203 ft 233 kts 339°
2026-05-01 14:46 54.91110 20.50587 2919 ft 243 kts 341°
2026-05-01 14:47 54.92713 20.49613 3758 ft 247 kts 338°
2026-05-01 14:47 54.94320 20.48481 4545 ft 251 kts 337°
2026-05-01 14:47 54.95935 20.47273 5366 ft 255 kts 337°
2026-05-01 14:48 54.99194 20.44747 7149 ft 257 kts 337°
2026-05-01 14:48 55.00825 20.43464 8060 ft 258 kts 337°
2026-05-01 14:48 55.04105 20.40867 9913 ft 260 kts 338°
2026-05-01 14:49 55.07484 20.38185 11135 ft 285 kts 338°
2026-05-01 14:49 55.11344 20.35112 11878 ft 320 kts 338°
2026-05-01 14:50 55.14096 20.32911 12597 ft 335 kts 337°
2026-05-01 14:50 55.19899 20.28623 14567 ft 344 kts 341°
2026-05-01 14:51 55.22149 20.27134 15220 ft 348 kts 341°
2026-05-01 14:51 55.26733 20.24096 16585 ft 356 kts 341°
2026-05-01 14:52 55.31390 20.20931 17954 ft 363 kts 341°
2026-05-01 14:52 55.33752 20.19305 18664 ft 366 kts 341°
2026-05-01 14:52 55.38544 20.15987 19843 ft 374 kts 341°
2026-05-01 14:53 55.40982 20.14296 20465 ft 379 kts 341°
2026-05-01 14:53 55.43446 20.12584 21095 ft 383 kts 341°
2026-05-01 14:53 55.45932 20.10856 21706 ft 387 kts 341°
2026-05-01 14:53 55.48448 20.09105 22308 ft 391 kts 341°
2026-05-01 14:54 55.50989 20.07334 22906 ft 395 kts 340°
2026-05-01 14:54 55.53555 20.05543 23522 ft 399 kts 340°
2026-05-01 14:54 55.56153 20.03728 24075 ft 403 kts 340°
2026-05-01 14:54 55.58769 20.01897 24574 ft 407 kts 340°
2026-05-01 14:55 55.61413 20.00044 25081 ft 410 kts 340°
2026-05-01 14:55 55.64080 19.98172 25597 ft 414 kts 340°
2026-05-01 14:55 55.66771 19.96281 26092 ft 418 kts 340°
2026-05-01 14:55 55.69482 19.94373 26596 ft 421 kts 340°
2026-05-01 14:56 55.72214 19.92446 27085 ft 424 kts 340°
2026-05-01 14:56 55.74966 19.90503 27577 ft 428 kts 340°
2026-05-01 14:56 55.77747 19.88537 28059 ft 431 kts 340°
2026-05-01 14:56 55.80543 19.86557 28542 ft 435 kts 340°
2026-05-01 14:57 55.83366 19.84554 28995 ft 438 kts 340°
2026-05-01 14:57 55.89067 19.80501 29901 ft 444 kts 340°
2026-05-01 14:57 55.91946 19.78449 30328 ft 448 kts 340°
2026-05-01 14:58 55.94847 19.76378 30682 ft 451 kts 340°
2026-05-01 14:58 55.97766 19.74291 31047 ft 453 kts 340°
2026-05-01 14:58 56.00697 19.72191 31399 ft 455 kts 340°
2026-05-01 14:58 56.03640 19.70080 31738 ft 457 kts 340°
2026-05-01 14:59 56.06592 19.67959 32060 ft 459 kts 340°
2026-05-01 14:59 56.10301 19.65288 32528 ft 459 kts 340°
2026-05-01 14:59 56.18515 19.60044 33828 ft 452 kts 349°
2026-05-01 14:59 56.24825 19.59305 34634 ft 449 kts
2026-05-01 15:00 56.36962 19.63927 35830 ft 449 kts 13°
2026-05-01 15:00 56.43032 19.66631 36414 ft 449 kts 13°
2026-05-01 15:00 56.49105 19.69297 36969 ft 449 kts 13°
2026-05-01 15:01 56.55163 19.71932 37531 ft 448 kts 12°
2026-05-01 15:01 56.61200 19.74557 38021 ft 448 kts 12°
2026-05-01 15:01 56.67286 19.77214 38581 ft 447 kts 13°
2026-05-01 15:01 56.73311 19.79855 39035 ft 446 kts 13°
2026-05-01 15:02 56.79371 19.82520 39243 ft 448 kts 12°
2026-05-01 15:02 56.91494 19.87878 39241 ft 448 kts 13°
2026-05-01 15:03 57.03607 19.93375 39237 ft 449 kts 14°
2026-05-01 15:03 57.15570 20.00072 39232 ft 450 kts 15°
2026-05-01 15:04 57.27570 20.06709 39230 ft 450 kts 15°
2026-05-01 15:04 57.39573 20.13322 39223 ft 450 kts 15°
2026-05-01 15:05 57.51578 20.19989 39220 ft 451 kts 15°
2026-05-01 15:05 57.63608 20.26719 39214 ft 451 kts 15°
2026-05-01 15:06 57.75634 20.33492 39213 ft 451 kts 15°
2026-05-01 15:06 57.87653 20.40309 39214 ft 452 kts 15°
2026-05-01 15:07 57.99688 20.47183 39208 ft 452 kts 15°
2026-05-01 15:07 58.17178 20.57259 39196 ft 453 kts 14°
2026-05-01 15:08 58.41054 20.71714 39191 ft 454 kts 18°
2026-05-01 15:08 58.64969 20.88464 39184 ft 455 kts 17°
2026-05-01 15:09 58.88763 21.05135 39165 ft 456 kts 17°
2026-05-01 15:09 59.09198 21.32481 39168 ft 480 kts 57°
2026-05-01 15:10 59.21152 21.79281 39168 ft 482 kts 59°
2026-05-01 15:10 59.38839 22.49958 39170 ft 482 kts 60°
2026-05-01 15:11 59.55776 23.21566 39157 ft 485 kts 67°
2026-05-01 15:12 59.63892 23.72473 39152 ft 486 kts 69°
2026-05-01 15:12 59.74425 24.41093 39140 ft 488 kts 70°
2026-05-01 15:14 59.90727 25.71989 39129 ft 488 kts 73°
2026-05-01 15:14 59.98435 26.38673 39125 ft 488 kts 73°
2026-05-01 15:15 60.04284 26.91603 39117 ft 487 kts 74°
2026-05-01 15:16 60.09101 27.45045 37748 ft 484 kts 76°
2026-05-01 15:17 60.11509 27.73531 34941 ft 486 kts 75°
2026-05-01 15:18 60.16223 28.31591 27974 ft 493 kts 75°
2026-05-01 15:18 60.17278 28.45082 26729 ft 484 kts 75°
2026-05-01 15:19 60.17440 28.77779 23890 ft 481 kts 95°
2026-05-01 15:19 60.16253 28.90902 22714 ft 474 kts 95°
2026-05-01 15:19 60.15669 28.97385 22164 ft 470 kts 95°
2026-05-01 15:20 60.14523 29.10088 21091 ft 462 kts 95°
2026-05-01 15:20 60.13949 29.16419 20565 ft 458 kts 95°
2026-05-01 15:20 60.13378 29.22682 20038 ft 455 kts 95°
2026-05-01 15:21 60.12809 29.28895 19528 ft 451 kts 96°
2026-05-01 15:21 60.12234 29.35134 19010 ft 448 kts 96°
2026-05-01 15:21 60.11677 29.41171 18508 ft 444 kts 96°
2026-05-01 15:21 60.11115 29.47237 17949 ft 441 kts 96°
2026-05-01 15:22 60.09995 29.59213 16928 ft 434 kts 96°
2026-05-01 15:22 60.09438 29.65130 16427 ft 430 kts 96°
2026-05-01 15:22 60.08883 29.70982 15947 ft 427 kts 96°
2026-05-01 15:23 60.08327 29.76819 15437 ft 424 kts 96°
2026-05-01 15:23 60.07776 29.82583 14958 ft 420 kts 96°
2026-05-01 15:23 60.07225 29.88311 14475 ft 417 kts 97°
2026-05-01 15:23 60.06676 29.93993 13990 ft 414 kts 97°
2026-05-01 15:24 60.06127 29.99632 13476 ft 411 kts 97°
2026-05-01 15:24 60.05305 30.05112 13158 ft 414 kts 111°
2026-05-01 15:24 60.03862 30.10098 12589 ft 415 kts 121°
2026-05-01 15:24 60.02204 30.14820 12010 ft 411 kts 123°
2026-05-01 15:25 60.00567 30.19373 11753 ft 396 kts 123°
2026-05-01 15:25 59.98993 30.23777 11463 ft 384 kts 123°
2026-05-01 15:25 59.97459 30.28093 11015 ft 378 kts 123°
2026-05-01 15:25 59.95970 30.32290 10557 ft 359 kts 123°
2026-05-01 15:26 59.94574 30.36221 10170 ft 335 kts 123°
2026-05-01 15:26 59.93272 30.39893 9695 ft 317 kts 123°
2026-05-01 15:26 59.92015 30.43442 8964 ft 310 kts 123°
2026-05-01 15:26 59.90783 30.46922 8199 ft 305 kts 123°
2026-05-01 15:27 59.89569 30.50342 7475 ft 300 kts 124°
2026-05-01 15:27 59.88377 30.53697 6854 ft 292 kts 124°
2026-05-01 15:27 59.87216 30.56955 6342 ft 289 kts 124°
2026-05-01 15:28 59.84916 30.63399 5415 ft 284 kts 125°
2026-05-01 15:28 59.83773 30.66591 5067 ft 282 kts 126°
2026-05-01 15:28 59.82658 30.69679 4876 ft 265 kts 127°
2026-05-01 15:29 59.79700 30.73291 3963 ft 255 kts 179°
2026-05-01 15:29 59.78036 30.72760 3804 ft 240 kts 205°
2026-05-01 15:29 59.75922 30.68221 3365 ft 223 kts 254°
2026-05-01 15:30 59.75320 30.62338 3182 ft 209 kts 260°
2026-05-01 15:31 59.75512 30.51972 2617 ft 182 kts 285°
2026-05-01 15:31 59.76191 30.47345 2100 ft 168 kts 285°
2026-05-01 15:32 59.76823 30.43091 1653 ft 153 kts 286°
2026-05-01 15:32 59.77388 30.39299 1262 ft 135 kts 285°
2026-05-01 15:33 59.78192 30.33947 684 ft 134 kts 286°
2026-05-01 15:34 59.78990 30.28587 156 ft 135 kts 288°